This demonstration page uses our WeatherBlox Daily Observations layout. Learn more.

Left ArrowRight Arrow

39.01783, -85.05884

Hourly Observations for October 22, 2019

Temp ( °F °C ) Dew Point ( °F °C ) Humidity (%) Winds ( mph kmh ) Pressure ( in mb ) Visibility ( mi km ) Precip ( " mm )
12:14 am 00:14 Cloudy 62 16.7 56 13.3 80 80 SSW 14 22 29.74 1007 10 16 0.00 0.00
12:52 am 00:52 Mostly Cloudy 61 16.1 56 13.3 84 84 SSW 13 20 29.76 1008 10 16 0.00 0.00
1:36 am 01:36 Mostly Cloudy 60 15.6 55 12.8 84 84 SSW 8 13 29.80 1009 10 16 0.00 0.00
1:47 am 01:47 Partly Cloudy 61 16 55 13 83 83 SW 9 15 29.74 1007 10 16 0.00 0.00
1:52 am 01:52 Mostly Clear 60 15.6 55 12.8 84 84 SSW 12 19 29.76 1008 10 16 0.00 0.00
2:52 am 02:52 Mostly Clear 58 14.4 54 12.2 87 87 SSW 6 9 29.75 1008 10 16 0.00 0.00
3:52 am 03:52 Mostly Cloudy 57 13.9 54 12.2 90 90 SSW 6 9 29.75 1007 10 16 0.00 0.00
4:52 am 04:52 Partly Cloudy 57 13.9 53 11.7 87 87 SW 7 11 29.74 1007 10 16 0.00 0.00
5:52 am 05:52 Mostly Clear 55 12.8 52 11.1 90 90 S 8 13 29.76 1008 10 16 0.00 0.00
6:52 am 06:52 Mostly Clear 52 11.1 50 10 93 93 S 8 13 29.76 1008 9 14 0.00 0.00
7:52 am 07:52 Clear 53 11.7 50 10 89 89 S 9 15 29.76 1008 10 16 0.00 0.00
8:52 am 08:52 Sunny 55 12.8 50 10 83 83 SW 10 17 29.78 1008 10 16 0.00 0.00
9:52 am 09:52 Mostly Sunny 56 13.3 43 6.1 62 62 WSW 15 24 29.80 1009 10 16 0.00 0.00
10:52 am 10:52 Partly Cloudy 57 13.9 41 5 55 55 WSW 16 26 29.79 1009 10 16 0.00 0.00
11:52 am 11:52 Partly Cloudy 60 15.6 41 5 50 50 SW 15 24 29.80 1009 10 16 0.00 0.00
12:52 pm 12:52 Partly Cloudy 59 15 40 4.4 49 49 WSW 14 22 29.81 1009 10 16 0.00 0.00
1:52 pm 13:52 Partly Cloudy 63 17.2 40 4.4 43 43 W 15 24 29.79 1009 10 16 0.00 0.00
2:52 pm 14:52 Partly Cloudy 61 16.1 38 3.3 43 43 SW 14 22 29.79 1009 10 16 0.00 0.00
4:52 pm 16:52 Mostly Cloudy 61 16.1 36 2.2 39 39 SW 16 26 29.82 1010 10 16 0.00 0.00
5:52 pm 17:52 Mostly Cloudy 60 15.6 36 2.2 41 41 WSW 8 13 29.83 1010 10 16 0.00 0.00
6:52 pm 18:52 Partly Cloudy 58 14.4 37 2.8 46 46 SW 8 13 29.85 1011 10 16 0.00 0.00
7:52 pm 19:52 Clear 55 12.8 37 2.8 51 51 WSW 7 11 29.88 1012 10 16 0.00 0.00
8:52 pm 20:52 Mostly Cloudy 54 12.2 37 2.8 53 53 WSW 6 9 29.90 1013 10 16 0.00 0.00
9:52 pm 21:52 Partly Cloudy 53 11.7 38 3.3 57 57 WSW 5 7 29.92 1013 10 16 0.00 0.00
10:52 pm 22:52 Partly Cloudy 52 11.1 38 3.3 59 59 WSW 5 7 29.93 1014 10 16 0.00 0.00
11:52 pm 23:52 Mostly Clear 52 11.1 38 3.3 59 59 WSW 7 11 29.94 1014 10 16 0.00 0.00

Powered by AerisWeather